"Month","Thousand Current Dollars"
1925-01-01,1972.00
1925-02-01,3134.00
1925-03-01,4937.00
1925-04-01,8035.00
1925-05-01,4911.00
1925-06-01,3190.00
1925-07-01,3724.00
1925-08-01,5742.00
1925-09-01,11298.0
1925-10-01,6989.00
1925-11-01,19318.0
1925-12-01,6255.00
1926-01-01,12095.0
1926-02-01,3971.00
1926-03-01,10369.0
1926-04-01,4543.00
1926-05-01,7886.00
1926-06-01,23790.0
1926-07-01,13501.0
1926-08-01,10423.0
1926-09-01,4695.00
1926-10-01,6243.00
1926-11-01,17730.0
1926-12-01,6106.00
1927-01-01,3040.00
1927-02-01,15423.0
1927-03-01,5125.00
1927-04-01,8444.00
1927-05-01,7235.00
1927-06-01,3696.00
1927-07-01,7747.00
1927-08-01,4661.00
1927-09-01,2685.00
1927-10-01,11052.0
1927-11-01,8867.00
1927-12-01,3547.00
1928-01-01,3203.00
1928-02-01,7920.00
1928-03-01,5422.00
1928-04-01,5676.00
1928-05-01,5826.00
1928-06-01,10804.0
1928-07-01,4961.00
1928-08-01,3993.00
1928-09-01,13541.0
1928-10-01,7934.00
1928-11-01,3123.00
1928-12-01,3597.00
1929-01-01,7236.00
1929-02-01,21085.0
1929-03-01,6320.00
1929-04-01,5572.00
1929-05-01,20892.0
1929-06-01,6844.00
1929-07-01,30299.0
1929-08-01,7413.00
1929-09-01,4571.00
1929-10-01,25322.0
1929-11-01,1853.00
1929-12-01,39223.0
1930-01-01,1975.00
1930-02-01,8182.00
1930-03-01,6190.00
1930-04-01,2601.00
1930-05-01,5873.00
1930-06-01,5471.00
1930-07-01,5266.00
1930-08-01,2192.00
1930-09-01,4047.00
1930-10-01,1061.00
1930-11-01,2685.00
1930-12-01,2245.00
1931-01-01,1453.00
1931-02-01,551.000
1931-03-01,10447.0
1931-04-01,1090.00
1931-05-01,5190.00
1931-06-01,265.000
1931-07-01,246.000
1931-08-01,256.000
1931-09-01,360.000
1931-10-01,154.000
1931-11-01,92.0000
1931-12-01,15.0000
1932-01-01,50.0000
1932-02-01,269.000
1932-03-01,186.000
1932-04-01,4.00000
1932-05-01,18.0000
1932-06-01,18.0000
1932-07-01,20.0000
1932-08-01,111.000
1932-09-01,59.0000
1932-10-01,385.000
1932-11-01,16.0000
1932-12-01,573.000
1933-01-01,78.0000
1933-02-01,80.0000
1933-03-01,375.000
1933-04-01,491.000
1933-05-01,124.000
1933-06-01,570.000
1933-07-01,5623.00
1933-08-01,206.000
1933-09-01,74.0000
1933-10-01,135.000
1933-11-01,2.00000
1933-12-01,51.0000
1934-01-01,158.000
1934-02-01,245.000
1934-03-01,278.000
1934-04-01,184.000
1934-05-01,338.000
1934-06-01,3698.00
1934-07-01,1164.00
1934-08-01,2847.00
1934-09-01,297.000
1934-10-01,39.0000
1934-11-01,695.000
1934-12-01,1420.00
1935-01-01,2191.00
1935-02-01,1909.00
1935-03-01,148.000
1935-04-01,120.000
1935-05-01,2151.00
1935-06-01,1314.00
1935-07-01,2652.00
1935-08-01,2471.00
1935-09-01,1226.00
1935-10-01,1264.00
1935-11-01,206.000
1935-12-01,2460.00
1936-01-01,494.000
1936-02-01,1529.00
1936-03-01,4555.00
1936-04-01,2614.00
1936-05-01,3944.00
1936-06-01,84.0000
1936-07-01,2456.00
1936-08-01,323.000
1936-09-01,141.000
1936-10-01,637.000
1936-11-01,507.000
1936-12-01,5831.00
1937-01-01,5478.00
1937-02-01,837.000
1937-03-01,5414.00
1937-04-01,516.000
1937-05-01,502.000
1937-06-01,4801.00
1937-07-01,36221.0
1937-08-01,673.000
1937-09-01,627.000
1937-10-01,843.000
1937-11-01,288.000
1937-12-01,6857.00
1938-01-01,1342.00
1938-02-01,447.000
1938-03-01,1967.00
1938-04-01,448.000
1938-05-01,319.000
1938-06-01,1648.00
1938-07-01,426.000
1938-08-01,756.000
1938-09-01,361.000
1938-10-01,719.000
1938-11-01,956.000
1938-12-01,1651.00
1939-01-01,524.000
1939-02-01,150.000
1939-03-01,1683.00
1939-04-01,829.000
1939-05-01,383.000
1939-06-01,2401.00
1939-07-01,2625.00
1939-08-01,658.000
1939-09-01,2357.00
1939-10-01,2788.00
1939-11-01,2099.00
1939-12-01,891.000
1940-01-01,955.000
1940-02-01,1331.00
1940-03-01,880.000
1940-04-01,3379.00
1940-05-01,2366.00
1940-06-01,2268.00
1940-07-01,3158.00
1940-08-01,2778.00
1940-09-01,2978.00
1940-10-01,3682.00
1940-11-01,6120.00
1940-12-01,11416.0
1941-01-01,7934.00
1941-02-01,7568.00
1941-03-01,3972.00
1941-04-01,4713.00
1941-05-01,18082.0
1941-06-01,5633.00
1941-07-01,7687.00
1941-08-01,13797.0
1941-09-01,37634.0
1941-10-01,22504.0
1941-11-01,8039.00
1941-12-01,35252.0
1942-01-01,30302.0
1942-02-01,22050.0
1942-03-01,50759.0
1942-04-01,57665.0
1942-05-01,62365.0
1942-06-01,45287.0
1942-07-01,82740.0
1942-08-01,41664.0
1942-09-01,68871.0
1942-10-01,54812.0
1942-11-01,22275.0
1942-12-01,15723.0
1943-01-01,16787.0
1943-02-01,7159.00
1943-03-01,10157.0
1943-04-01,3542.00
1943-05-01,1544.00
1943-06-01,3908.00
1943-07-01,1589.00
1943-08-01,2806.00
1943-09-01,6191.00
1943-10-01,3184.00
1943-11-01,3446.00
1943-12-01,9124.00
1944-01-01,1389.00
1944-02-01,5701.00
1944-03-01,7839.00
1944-04-01,2163.00
1944-05-01,2701.00
1944-06-01,2372.00
1944-07-01,3315.00
1944-08-01,3416.00
1944-09-01,5581.00
1944-10-01,-419.000
1944-11-01,1767.00
1944-12-01,6009.00
